This demonstration page uses our WeatherBlox Daily Observations layout. Learn more.

Left ArrowRight Arrow

40.92945, -100.16068

Hourly Observations for May 24, 2022

Temp ( °F °C ) Dew Point ( °F °C ) Humidity (%) Winds ( mph kmh ) Pressure ( in mb ) Visibility ( mi km ) Precip ( " mm )
12:15 am 00:15 Cloudy 46 7.7 45 7 95 95 ENE 6 9 30.16 1021 10 16 0.00 0.00
12:35 am 00:35 Cloudy 46 7.7 45 7 95 95 ENE 5 7 30.15 1021 10 16 0.00 0.00
12:55 am 00:55 Cloudy 46 8 45 7 93 93 E 6 9 30.15 1021 10 16 0.00 0.00
1:15 am 01:15 Cloudy 46 8 45 7 93 93 E 5 7 30.14 1021 10 16 0.00 0.00
1:35 am 01:35 Cloudy 47 8.1 44 6.8 92 92 E 5 7 30.13 1020 10 16 0.00 0.00
1:55 am 01:55 Mostly Cloudy 46 7.8 44 6.7 93 93 E 5 7 30.12 1020 10 16 0.00 0.00
2:15 am 02:15 Mostly Cloudy 46 7.5 43 6.2 92 92 E 3 6 30.12 1020 10 16 0.00 0.00
2:35 am 02:35 Mostly Cloudy 44 6.9 43 6.1 95 95 NE 3 6 30.13 1020 10 16 0.00 0.00
2:55 am 02:55 Mostly Cloudy 44 6.5 42 5.8 95 95 NE 5 7 30.12 1020 10 16 0.00 0.00
3:15 am 03:15 Partly Cloudy 43 6.2 42 5.5 95 95 N 3 6 30.13 1020 10 16 0.00 0.00
3:35 am 03:35 Partly Cloudy 43 6.1 42 5.5 96 96 NE 5 7 30.12 1020 10 16 0.00 0.00
3:55 am 03:55 Cloudy 44 6.6 43 6.1 97 97 Calm 30.11 1020 10 16 0.00 0.00
4:15 am 04:15 Cloudy 45 7.3 44 6.7 96 96 NE 3 6 30.10 1019 10 16 0.00 0.00
4:35 am 04:35 Cloudy 46 7.6 44 6.8 95 95 NE 5 7 30.09 1019 10 16 0.00 0.00
4:55 am 04:55 Cloudy 46 8 44 6.7 92 92 ENE 5 7 30.10 1019 10 16 0.00 0.00
5:15 am 05:15 Cloudy 46 8 44 6.7 92 92 ENE 6 9 30.10 1019 10 16 0.00 0.00
5:35 am 05:35 Cloudy 47 8.1 44 6.7 91 91 ENE 6 9 30.10 1019 10 16 0.00 0.00
5:55 am 05:55 Cloudy 46 8 44 6.7 92 92 NE 5 7 30.09 1019 10 16 0.00 0.00
6:15 am 06:15 Cloudy 46 8 44 6.7 92 92 NE 6 9 30.09 1019 10 16 0.00 0.00
6:35 am 06:35 Cloudy 46 8 44 6.7 92 92 NNE 6 9 30.08 1019 10 16 0.00 0.00
6:55 am 06:55 Cloudy 46 8 44 6.5 90 90 NE 7 11 30.08 1019 10 16 0.00 0.00
7:15 am 07:15 Cloudy 47 8.1 44 6.5 90 90 NE 7 11 30.09 1019 10 16 0.00 0.00
7:35 am 07:35 Cloudy 47 8.3 44 6.7 90 90 ENE 7 11 30.09 1019 10 16 0.00 0.00
7:55 am 07:55 Cloudy 47 8.5 44 6.6 88 88 NE 8 13 30.09 1019 10 16 0.00 0.00
8:15 am 08:15 Cloudy 48 8.7 44 6.6 87 87 NE 9 15 30.08 1019 10 16 0.00 0.00
8:35 am 08:35 Cloudy 48 8.9 44 6.6 86 86 ENE 7 11 30.08 1019 10 16 0.00 0.00
8:55 am 08:55 Cloudy 49 9.6 45 7 84 84 NE 9 15 30.06 1018 10 16 0.00 0.00
9:15 am 09:15 Mostly Cloudy 50 10.1 45 7.2 82 82 ENE 9 15 30.06 1018 10 16 0.00 0.00
9:35 am 09:35 Partly Cloudy 51 10.8 46 7.5 80 80 NE 12 19 30.05 1018 10 16 0.00 0.00
9:55 am 09:55 Sunny 52 11.3 46 7.5 78 78 NE 9 15 30.04 1017 10 16 0.00 0.00
10:15 am 10:15 Partly Cloudy 53 11.8 46 7.5 75 75 NE 10 17 30.03 1017 10 16 0.00 0.00
10:35 am 10:35 Partly Cloudy 54 12 46 7.7 75 75 NE 10 17 30.03 1017 10 16 0.00 0.00
10:55 am 10:55 Mostly Cloudy 54 12 45 7.3 73 73 ENE 13 20 30.02 1017 10 16 0.00 0.00
11:15 am 11:15 Cloudy 53 11.8 45 7.3 74 74 ENE 15 24 30.02 1017 10 16 0.00 0.00
11:35 am 11:35 Cloudy 53 11.5 45 7.2 75 75 ENE 13 20 30.02 1017 10 16 0.00 0.00
11:55 am 11:55 Cloudy 53 11.5 45 7.4 76 76 NE 10 17 30.02 1017 10 16 0.00 0.00
12:15 pm 12:15 Cloudy 54 12 45 7.3 73 73 NE 8 13 30.01 1016 10 16 0.00 0.00
12:35 pm 12:35 Cloudy 53 11.7 45 7.3 75 75 NE 13 20 30.02 1016 10 16 0.00 0.00
12:55 pm 12:55 Cloudy 54 12.2 45 7.4 73 73 NE 14 22 30.01 1016 10 16 0.00 0.00
1:15 pm 13:15 Cloudy 53 11.6 45 7 74 74 ENE 12 19 30.01 1016 10 16 0.00 0.00
1:35 pm 13:35 Cloudy with Drizzle 54 12 45 7.4 74 74 ENE 9 15 29.99 1016 10 16 0.00 0.00
1:55 pm 13:55 Cloudy with Light Rain 54 12 47 8.1 77 77 ENE 9 15 29.98 1015 10 16 0.00 0.00
2:15 pm 14:15 Cloudy with Drizzle 52 11.2 47 8.2 82 82 ENE 12 19 29.99 1016 7 11 0.00 0.00
2:35 pm 14:35 Cloudy with Drizzle 53 11.4 48 8.9 85 85 ENE 10 17 29.98 1015 10 16 0.01 0.25
2:55 pm 14:55 Cloudy with Rain 52 11 48 9 88 88 E 12 19 29.98 1015 7 11 0.02 0.51
3:15 pm 15:15 Cloudy with Drizzle 51 10.7 48 8.8 88 88 ENE 10 17 29.98 1015 7 11 0.00 0.00
3:35 pm 15:35 Cloudy with Light Rain 51 10.6 49 9.2 91 91 ENE 12 19 29.99 1015 7 11 0.02 0.51
3:55 pm 15:55 Cloudy with Light Rain 51 10.3 47 8.4 88 88 ENE 13 20 29.99 1016 7 11 0.03 0.76
4:15 pm 16:15 Cloudy with Light Rain 49 9.7 47 8.4 92 92 ENE 13 20 29.99 1016 7 11 0.02 0.51
4:35 pm 16:35 Cloudy with Light Rain 49 9.6 46 7.9 89 89 ENE 15 24 29.99 1016 10 16 0.03 0.76
4:55 pm 16:55 Cloudy with Light Rain 49 9.5 46 7.7 89 89 ENE 17 28 30.00 1016 7 11 0.04 1.02
5:15 pm 17:15 Cloudy with Light Rain 48 9.1 46 7.6 90 90 NE 9 15 30.01 1016 7 11 0.02 0.51
5:35 pm 17:35 Cloudy with Rain 49 9.2 46 8 92 92 NE 8 13 30.00 1016 7 11 0.05 1.27
5:55 pm 17:55 Cloudy with Light Rain 49 9.3 47 8.1 92 92 NE 10 17 30.00 1016 7 11 0.08 2.03
6:15 pm 18:15 Cloudy with Light Rain 49 9.5 47 8.5 94 94 NE 8 13 30.00 1016 5 8 0.02 0.51
6:35 pm 18:35 Cloudy with Light Rain 49 9.7 48 8.7 94 94 ENE 10 17 29.99 1016 5 8 0.04 1.02
6:55 pm 18:55 Cloudy with Light Rain 49 9.3 47 8.1 92 92 NE 13 20 30.00 1016 7 11 0.07 1.78
7:15 pm 19:15 Cloudy with Light Rain 49 9.2 46 8 92 92 NE 14 22 29.99 1016 7 11 0.01 0.25
7:35 pm 19:35 Cloudy with Light Rain 49 9.2 47 8.1 93 93 NE 13 20 29.99 1016 10 16 0.03 0.76
7:55 pm 19:55 Cloudy with Light Rain 49 9.2 47 8.1 93 93 NE 17 28 29.99 1016 7 11 0.04 1.02
8:15 pm 20:15 Cloudy with Rain 48 9 46 7.8 92 92 NE 20 31 29.99 1016 7 11 0.01 0.25
8:35 pm 20:35 Cloudy with Rain 48 8.8 46 7.7 93 93 NE 14 22 29.99 1016 7 11 0.02 0.51
8:55 pm 20:55 Cloudy with Drizzle 47 8.6 46 7.5 93 93 NE 15 24 29.99 1016 7 11 0.02 0.51
9:15 pm 21:15 Cloudy with Light Rain 47 8.5 46 7.5 94 94 NNE 15 24 29.99 1015 10 16 0.00 0.00
9:35 pm 21:35 Cloudy with Light Rain 47 8.5 46 7.5 94 94 NNE 13 20 30.00 1016 10 16 0.01 0.25
9:55 pm 21:55 Cloudy with Rain 47 8.5 46 7.5 94 94 NNE 13 20 30.01 1016 10 16 0.01 0.25
10:15 pm 22:15 Cloudy with Drizzle 47 8.5 46 7.5 94 94 NNE 12 19 30.01 1016 10 16 0.00 0.00
10:35 pm 22:35 Cloudy with Light Rain 47 8.5 46 7.5 94 94 N 12 19 30.01 1016 7 11 0.01 0.25
10:55 pm 22:55 Cloudy with Drizzle 47 8.5 46 7.5 94 94 N 12 19 30.01 1016 10 16 0.01 0.25
11:15 pm 23:15 Cloudy with Light Rain 47 8.5 46 7.6 94 94 NNE 10 17 30.01 1016 10 16 0.00 0.00
11:35 pm 23:35 Cloudy with Drizzle 47 8.5 46 7.5 94 94 N 12 19 30.01 1016 10 16 0.00 0.00
11:55 pm 23:55 Cloudy with Light Rain 47 8.5 46 7.5 94 94 N 13 20 30.00 1016 10 16 0.00 0.00

Powered by AerisWeather